Barking Sands, HI

10:13 AM HST on July 27, 2017 (GMT -1000)
Barking Sands PMRF

Weather History for PHBK - March, 2013

Change the Weather History Date:

Monday, March 18, 2013

  Actual Average Record
Temperature  
Mean Temperature 70 °F -  
Max Temperature 78 °F 82 °F 85 °F (1965)
Min Temperature 62 °F 62 °F 58 °F (1958)
Cooling Degree Days 5    
Growing Degree Days 20 (Base 50)    
Moisture  
Dew Point 52 °F    
Average Humidity 54    
Maximum Humidity 84    
Minimum Humidity 36    
Precipitation  
Precipitation 0.00 in - - ()
Sea Level Pressure  
Sea Level Pressure 30.00 in    
Wind  
Wind Speed 7 mph (NNE)    
Max Wind Speed 14 mph    
Max Gust Speed -    
Visibility 10 miles    
Events      
Averages and records for this station are not official NWS values.
T = Trace of Precipitation, MM = Missing Value Source: NWS Daily Summary

Daily Weather History Graph

Daily Weather History Graph

Search for Another Location

Airport or City:

Trip Planner

Search our weather history database for the weather conditions in past years. The results will help you decide how hot, cold, wet, or windy it might be!

Date:

Astronomy

Mar. 18, 2013 Rise Set
Actual Time 6:44 AM HST 6:49 PM HST
Civil Twilight 6:22 AM HST 7:12 PM HST
Nautical Twilight 5:56 AM HST 7:37 PM HST
Astronomical Twilight 5:30 AM HST 8:03 PM HST
Moon 11:33 AM HST (3/18) 12:19 AM HST (3/18)
Length of Visible Light 12h 49m
Length of Day
12h 05m
Waxing Crescent, 42% of the Moon is Illuminated
Mar 18
Waxing Crescent
Mar 19
First Quarter
Mar 26
Full
Apr 2
Last Quarter
Apr 9
New

Hourly Weather History & Observations

Time (HST) Temp. Dew Point Humidity Pressure Visibility Wind Dir Wind Speed Gust Speed Precip Events Conditions
12:56 AM 62.1 °F 57.0 °F 84% 30.04 in 10.0 mi ENE 4.6 mph - N/A   Clear
1:56 AM 64.0 °F 57.0 °F 78% 30.03 in 10.0 mi ENE 4.6 mph - N/A   Clear
2:56 AM 63.0 °F 55.9 °F 78% 30.01 in 10.0 mi ENE 4.6 mph - N/A   Clear
3:56 AM 64.0 °F 57.0 °F 78% 30.01 in 10.0 mi East 3.5 mph - N/A   Mostly Cloudy
4:56 AM 64.0 °F 55.0 °F 73% 30.00 in 10.0 mi ENE 4.6 mph - N/A   Clear
5:56 AM 64.0 °F 54.0 °F 70% 30.01 in 10.0 mi ENE 4.6 mph - N/A   Unknown
6:56 AM 63.0 °F 54.0 °F 72% 30.03 in 10.0 mi ENE 5.8 mph - N/A   Clear
7:56 AM 66.9 °F 57.0 °F 70% 30.03 in 10.0 mi Calm Calm - N/A   Clear
8:56 AM 73.9 °F 53.1 °F 48% 30.04 in 10.0 mi North 12.7 mph - N/A   Clear
9:56 AM 75.9 °F 48.9 °F 38% 30.04 in 10.0 mi North 10.4 mph - N/A   Mostly Cloudy
10:56 AM 77.0 °F 50.0 °F 39% 30.04 in 10.0 mi North 10.4 mph - N/A   Clear
11:56 AM 77.0 °F 50.0 °F 39% 30.04 in 10.0 mi North 13.8 mph - N/A   Clear
12:56 PM 78.1 °F 50.0 °F 37% 30.01 in 10.0 mi NNW 13.8 mph - N/A   Partly Cloudy
1:56 PM 77.0 °F 48.0 °F 36% 29.98 in 10.0 mi NNW 12.7 mph - N/A   Overcast
2:56 PM 77.0 °F 48.9 °F 37% 29.96 in 10.0 mi NNW 13.8 mph - N/A   Scattered Clouds
3:56 PM 77.0 °F 48.9 °F 37% 29.95 in 10.0 mi NNW 11.5 mph - N/A   Clear
4:56 PM 75.9 °F 48.9 °F 38% 29.96 in 10.0 mi North 11.5 mph - N/A   Clear
5:32 PM 75.2 °F 48.2 °F 38% 29.96 in - North 10.4 mph - N/A   Haze
5:46 PM 73.4 °F 50.0 °F 44% 29.96 in 10.0 mi North 11.5 mph - N/A   Mostly Cloudy
5:56 PM 73.9 °F 51.1 °F 45% 29.97 in 10.0 mi North 10.4 mph - N/A   Overcast
6:56 PM 73.0 °F 52.0 °F 48% 29.97 in 10.0 mi NNE 8.1 mph - N/A   Overcast
7:56 PM 71.1 °F 48.9 °F 45% 29.99 in 10.0 mi Calm Calm - N/A   Overcast
8:56 PM 71.1 °F 51.1 °F 49% 30.01 in 10.0 mi ESE 4.6 mph - N/A   Overcast
9:56 PM 69.1 °F 52.0 °F 54% 30.01 in 10.0 mi East 4.6 mph - N/A   Mostly Cloudy
10:56 PM 66.9 °F 52.0 °F 59% 30.02 in 10.0 mi East 3.5 mph - N/A   Clear
11:56 PM 66.0 °F 53.1 °F 63% 30.00 in 10.0 mi East 4.6 mph - N/A   Clear